{"data":{"norad_id":55131,"epoch":"2026-05-24T18:22:57.325728Z","epoch_age_seconds":109467,"freshness":"FRESH","line1":"1 55131U 23002A   26144.76594127 -.00000121  00000+0  00000+0 0  9993","line2":"2 55131   3.6597  78.6004 0004187 274.0878 328.8414  1.00090653 12274","mean_motion":1.00090653,"eccentricity":0.0004187,"inclination_deg":3.6597,"raan_deg":78.6004,"arg_perigee_deg":274.0878,"mean_anomaly_deg":328.8414,"bstar":0,"rev_number":1227,"period_min":1438.6957791154,"perigee_km":35819.773731059,"apogee_km":35855.125063108,"semimajor_km":42215.586397084,"source":"CELESTRAK","updated_at":"2026-05-25T13:38:14.137491Z"}}